Miscellaneous Local Product
Issued by NWS Hastings, NE

Home | Current Version | Previous Version | Graphics & Text | Print | Product List | Glossary On
Versions: 1 2 3 4 5 6 7 8 9 10 11 12 13 14 15 16 17 18 19 20 21 22 23 24 25 26 27 28 29 30 31 32 33 34 35 36 37 38 39 40 41 42 43 44 45 46 47 48 49 50
000
AXUS43 KGID 180302
MISGRI

GID CWA HOURLY WEATHER ROUNDUP
NATIONAL WEATHER SERVICE HASTINGS NE
1000 PM CDT THU AUG 17 2017

NOTE: "FAIR" INDICATES FEW OR NO CLOUDS BELOW 12,000 FEET WITH NO
SIGNIFICANT WEATHER AND/OR OBSTRUCTIONS TO VISIBILITY.

...SOUTH CENTRAL NEBRASKA...

CITY           SKY/WX    TMP DP  RH WIND       PRES   REMARKS
GRAND ISLAND   CLEAR     69  65  86 S8        29.94R
HASTINGS       CLEAR     74  60  61 S6        29.96R
KEARNEY        PTCLDY    70  63  78 S6        29.95R
ORD            CLEAR     70  61  73 S5        29.91R
YORK           CLEAR     68  64  88 S7        29.94R
AURORA         CLEAR     71  63  75 S5        29.95R
LEXINGTON      CLOUDY    73  60  64 S8        29.93S
HOLDREGE       MOCLDY    70  57  64 SE8       29.95S
HEBRON         CLEAR     71  64  78 S6        29.95R

...NEBRASKA PANHANDLE...

CITY           SKY/WX    TMP DP  RH WIND       PRES   REMARKS
CHADRON        CLEAR     61  54  77 SW6       30.01R
ALLIANCE       LGT RAIN  67  49  52 MISG      30.03R
SCOTTSBLUFF    CLEAR     71  48  43 N18       30.03R
SIDNEY         PTCLDY    68  49  50 W13       30.05R

...WESTERN AND NORTH CENTRAL NEBRASKA...

CITY           SKY/WX    TMP DP  RH WIND       PRES   REMARKS
VALENTINE      LGT RAIN  68  55  63 N17       29.91F
AINSWORTH      CLOUDY    68  57  69 N29G37    29.95R
ONEILL         CLEAR     72  62  71 S7        29.89R
BROKEN BOW     MOCLDY    75  60  59 S7        29.92S
IMPERIAL       CLOUDY    63  57  81 S9        29.98S
NORTH PLATTE   CLOUDY    73  60  63 SE3       29.93R
MCCOOK         CLOUDY    76  50  40 S15       29.90S

...EASTERN NEBRASKA...

CITY           SKY/WX    TMP DP  RH WIND       PRES   REMARKS
NORFOLK        CLEAR     67  63  87 SE5       29.91R
SO SIOUX CITY  CLEAR     67  63  87 CALM      29.90R
TEKAMAH        CLEAR     66  63  90 E5        29.90S
COLUMBUS       CLEAR     72  66  81 S7        29.93R
ALBION         CLEAR     70  65  83 SE3       29.92R
OMAHA EPPLEY   CLEAR     71  62  73 E3        29.91R
OFFUTT AFB     CLEAR     64  60  85 CALM      29.91R
MILLARD        CLEAR     70  65  84 CALM      29.92R
LINCOLN        CLEAR     70  64  81 S5        29.94R
NEBRASKA CITY  CLEAR     71  65  83 CALM      29.94R
BEATRICE       CLEAR     72  64  74 S3        29.95R
FALLS CITY     CLEAR     67  62  84 CALM      29.93R

...NORTHERN KANSAS...

CITY           SKY/WX    TMP DP  RH WIND       PRES   REMARKS
GOODLAND       CLEAR     75  62  64 S8        30.02F
HILL CITY      CLOUDY    74  57  55 SE3       29.97R
NORTON         PTCLDY    75  48  38 SW15G28   30.00R
PHILLIPSBURG   CLEAR     75  52  43 SE6       29.96R
SMITH CENTER   PTCLDY    66  59  77 SE7       29.96R
HAYS           CLEAR     72  58  61 SE10      29.98R
RUSSELL        CLEAR     72  56  57 SE9       29.97R
CONCORDIA      CLEAR     72  60  66 S10       29.96R
SALINA         CLEAR     74  60  61 S6        29.97R
TOPEKA         CLEAR     67  63  87 CALM      29.95R



USA.gov is the U.S. government's official web portal to all federal, state and local government web resources and services.